カタログに戻る

USA 559

運用中軍事VLEO
NORAD 65705·PAYLOAD·🇺🇸 United States

打ち上げ Sep 22, 2025 から Vandenberg Space Force Base

Loading…

次のパス (今後24時間)

TLE

古いSource: Mike McCants

元期: Aug 20, 2026, 01:49 UTC

1 65705U 25213B   26232.07619895 0.00000000  00000-0  00000-0 0    09
2 65705  70.0152 226.5822 0003000 334.7533  25.2467 14.96713510    01

AllMySatでUSA 559をリアルタイム追跡

Download on the App Store